Location: Laterina
(43.5167°N, 11.7167°E)
Time: 23:15:30
(UTC+00:00)

Cosmos 1125 Rocket - Pass Details

Date: 24 June 2021
Orbit: 757 x 780 km, 74.0° (Epoch: 29 July)

Event Time Altitude Azimuth Distance (km) Brightness Sun altitude
Rises 02:01:59 0° 328° (NNW) 3,249 7.0 -12.9°
Reaches altitude 10° 02:04:40 10° 317° (NW) 2,321 6.1 -12.6°
Maximum altitude 02:09:00 27° 261° (W) 1,466 4.6 -12.1°
Enters shadow 02:12:03 16° 215° (SW) 1,934 4.9 -11.8°
